Location: Nelson
(41.2830°S, 173.2830°E)
Time: 15:10:37
(UTC+13:00)

Cosmos 540 Rocket - Visible Passes

Search period start: 15 October 2019 00:00
Search period end: 25 October 2019 00:00
Orbit: 739 x 754 km, 74.1° (Epoch: 14 October)

Date Brightness Start Highest point End Pass type
(mag) Time Alt. Az. Time Alt. Az. Time Alt. Az.
15 Oct 4.0 20:13:41 10° S 20:18:35 41° ESE 20:23:27 10° NE visible
15 Oct 5.5 21:55:52 10° SW 21:59:53 23° W 22:03:53 10° NNW visible
16 Oct 4.5 21:11:51 10° SSW 21:16:47 46° WNW 21:21:41 10° N visible
17 Oct 3.5 20:28:19 10° SSW 20:33:32 90° ENE 20:38:42 10° NNE visible
18 Oct 5.8 21:27:33 10° SW 21:31:20 21° W 21:35:06 10° NW visible
19 Oct 4.8 20:43:25 10° SW 20:48:16 41° WNW 20:53:04 10° N visible
21 Oct 6.1 20:59:16 10° SW 21:02:47 19° W 21:06:16 10° NW visible
22 Oct 5.2 20:15:00 10° SW 20:19:44 36° WNW 20:24:25 10° NNW visible
24 Oct 6.3 20:31:02 10° WSW 20:34:12 17° W 20:37:24 10° NW visible
